[ hide orbit diagram ]
For accurate long-term ephemerides, please instead use our Horizons system.This orbit viewer was implemented using two-body methods, and hence should not be used for determining accurate long-term trajectories (over several years or decades) or planetary encounter circumstances.
Orbital Elements at Epoch 2459000.5 (2020-May-31.0) TDB
Reference: JPL 42 (heliocentric ecliptic J2000)
Element | Value | Uncertainty (1-sigma) | Units |
e | .175692147898704 | 3.3579e-08 | |
a | 3.120856743699507 | 1.164e-08 | au |
q | 2.572546719114785 | 1.0816e-07 | au |
i | 2.038477852918636 | 3.5768e-06 | deg |
node | 121.0914000532768 | 0.00011018 | deg |
peri | 300.301179727081 | 0.00011068 | deg |
M | 357.4314033367024 | 1.0166e-05 | deg |
tp | 2459014.868207483898 (2020-Jun-14.36820748) | 5.6884e-05 | TDB |
period | 2013.766804307374 5.51 | 1.1266e-05 3.084e-08 | d yr |
n | .178769457928283 | 1.0001e-09 | deg/d |
Q | 3.669166768284229 | 1.3685e-08 | au |
|
| | Orbit Determination Parameters
Additional Information
|
[ show covariance matrix ]
Physical Parameter Table
Parameter |
Symbol |
Value |
Units |
Sigma |
Reference |
Notes |
absolute magnitude |
H |
10.8 |
|
n/a |
MPO502158 |
IRAS observations used: 8 |
diameter |
diameter |
41.190 |
km |
0.146 |
urn:nasa:pds:neowise_diameters_albedos::2.0[mainbelt] (http://adsabs.harvard.edu/abs/2014ApJ...791..121M) |
|
rotation period |
rot_per |
10.636 |
h |
n/a |
LCDB (Rev. 2020-October); Warner et al., 2009 |
Published Reference List: [Pilcher, F. (2015) Minor Planet Bull. 42, 91-94.] |
geometric albedo |
albedo |
0.039 |
|
0.004 |
urn:nasa:pds:neowise_diameters_albedos::2.0[mainbelt] (http://adsabs.harvard.edu/abs/2014ApJ...791..121M) |
|
B-V |
BV |
0.875 |
|
0.029 |
EAR-A-5-DDR-UBV-MEAN-VALUES-V1.2 |
#obs=1; phase=9.50 deg. |
U-B |
UB |
0.415 |
|
0.050 |
EAR-A-5-DDR-UBV-MEAN-VALUES-V1.2 |
#obs=1; phase=9.50 deg. |
Tholen spectral type |
spec_T |
I |
|
n/a |
EAR-A-5-DDR-TAXONOMY-V4.0 |
used 7 color indices; used ground-based radiometric albedo |
SMASSII spectral type |
spec_B |
Cb |
|
n/a |
EAR-A-5-DDR-TAXONOMY-V4.0 |
based on a high-resolution spectrum by Xu et al. (1995) or Bus and Binzel (2002) |
|
515 Athalia (A903 SH) Discovered 1903-Sep-20 by Wolf, M. at Heidelberg |
Reference: DISCOVERY.DB | Last Updated: 2003-08-29 |
|
[ show close-approach data ]
Alternate Designations
A903 SH = 1931 TQ = 1937 WO = 1937 WQ = 1937 WR = 1937 YH = 1953 TD = 1974 QA3 = 1977 CF |
|
|